Skip Page Navigation
NASA JPL Caltech
NASA Logo - Jet Propulsion Laboratory + View the NASA Portal
+ Center for Near-Earth Object Studies
JPL Home Earth Solar System Stars & Galaxies Technology
JPL Solar System Dynamics
BODIES ORBITS EPHEMERIDES TOOLS PHYSICAL DATA DISCOVERY FAQ SITE MAP
IMPORTANT: The SSD Announcement email list is now available. Major changes are coming in the near future, including possible hostname and/or URL changes. To be notified of such changes, subscribe to this email list.

Please visit this page for more details.


JPL Small-Body Database Browser
Search: [ help ]  
63162 Davidcapek (2000 YE11)
Classification: Main-belt Asteroid          SPK-ID: 2063162
Ephemeris | Orbit Diagram | Orbital Elements | Mission Design | Physical Parameters | Discovery Circumstances | Close-Approach Data ]

[ hide orbit diagram ]

For accurate long-term ephemerides, please instead use our Horizons system.This orbit viewer was implemented using two-body methods, and hence should not be used for determining accurate long-term trajectories (over several years or decades) or planetary encounter circumstances.


[ revert to old Java-based viewer ]

Orbital Elements at Epoch 2459000.5 (2020-May-31.0) TDB
Reference: JPL 18 (heliocentric ecliptic J2000)
 Element Value Uncertainty (1-sigma)   Units 
e .1592719846993708 5.6989e-08  
a 3.154851045274524 2.8775e-08 au
q 2.652371657862766 1.8662e-07 au
i 17.47051182252281 5.6455e-06 deg
node 84.16282661741404 2.1909e-05 deg
peri 294.3763683835226 2.8534e-05 deg
M 218.115409665679 1.9237e-05 deg
tp 2459807.176574236166
(2022-Aug-15.67657424)
0.00011364 TDB
period 2046.759031694319
5.60
2.8002e-05
7.667e-08
d
yr
n .1758878277439382 2.4064e-09 deg/d
Q 3.657330432686283 3.3358e-08 au
  Orbit Determination Parameters
   # obs. used (total)      676  
   data-arc span      7648 days (20.94 yr)  
   first obs. used      1998-05-24  
   last obs. used      2019-05-02  
   planetary ephem.      DE431  
   SB-pert. ephem.      SB431-N16  
   condition code      0  
   norm. resid. RMS      .55728  
   source      ORB  
   producer      Otto Matic  
   solution date      2019-Jul-13 03:55:29  

Additional Information
 Earth MOID = 1.71218 au 
 Jupiter MOID = 1.93321 au 
 T_jup = 3.116 
[ show covariance matrix ]

Ephemeris | Orbit Diagram | Orbital Elements | Mission Design | Physical Parameters | Discovery Circumstances | Close-Approach Data ]

Physical Parameter Table
Parameter Symbol Value Units Sigma Reference Notes
absolute magnitude H 13.9   n/a MPO474511  
diameter diameter 11.217 km 0.214 urn:nasa:pds:neowise_diameters_albedos::2.0[mainbelt] (http://adsabs.harvard.edu/abs/2011ApJ...741...68M)  
geometric albedo albedo 0.046   0.010 urn:nasa:pds:neowise_diameters_albedos::2.0[mainbelt] (http://adsabs.harvard.edu/abs/2011ApJ...741...68M)  

63162 Davidčapek           Discovered 2000 Dec. 22 by P. Pravec and P. Kusnirak at Ondrejov.
David Čapek (b. 1977) is an astronomer at the Astronomical Institute of the Academy of Sciences of the Czech Republic. He performs theoretical work on non-gravitational effects on small solar system bodies and on the thermal stress and rotation of meteoroids.
NOTE: some special characters may not display properly (any characters within {} are an attempt to place the proper accent above a character)
Reference: MPC batch dated 2014-07-12Last Updated: 2014-08-13

[ show close-approach data ]
Ephemeris | Orbit Diagram | Orbital Elements | Mission Design | Physical Parameters | Discovery Circumstances | Close-Approach Data ]
ABOUT SSD CREDITS/AWARDS PRIVACY/COPYRIGHT GLOSSARY LINKS
FirstGov 2020-Feb-20 08:14 UT
(server date/time)  
NASA Home Page
Site Manager:   Ryan S. Park
Webmaster  Alan B. Chamberlin